This demonstration page uses our WeatherBlox Daily Observations layout. Learn more.

Left ArrowRight Arrow

Hourly Observations for May 28, 2015

Temp ( °F °C ) Dew Point ( °F °C ) Humidity (%) Winds ( mph kmh ) Pressure ( in mb ) Visibility ( mi km ) Precip ( " mm )
12:15 am 00:15 Clear 70 21 70 21 100 100 SSW 3 6 30.15 1021 10 16 N/A
12:35 am 00:35 Clear 68 20 68 20 100 100 WNW 3 6 30.15 1021 10 16 N/A
12:55 am 00:55 Partly Cloudy 68 20 68 20 100 100 WNW 6 9 30.15 1021 10 16 N/A
1:15 am 01:15 Partly Cloudy 68 20 68 20 100 100 N N/A 30.15 1021 10 16 N/A
1:35 am 01:35 Partly Cloudy 68 20 68 20 100 100 N N/A 30.15 1021 10 16 N/A
1:55 am 01:55 Clear 68 20 68 20 100 100 SSW 5 7 30.15 1021 10 16 N/A
2:15 am 02:15 Clear 68 20 68 20 100 100 SW 5 7 30.15 1021 10 16 N/A
2:35 am 02:35 Clear 68 20 68 20 100 100 SSW 5 7 30.15 1021 10 16 N/A
2:55 am 02:55 Clear 66 19 66 19 100 100 W 3 6 30.12 1020 10 16 N/A
3:15 am 03:15 Clear 68 20 68 20 100 100 W 6 9 30.12 1020 10 16 N/A
3:35 am 03:35 Clear 68 20 68 20 100 100 W 7 11 30.12 1020 10 16 N/A
3:55 am 03:55 Clear 70 21 70 21 100 100 N N/A 30.12 1020 10 16 N/A
4:15 am 04:15 Clear 70 21 68 20 94 94 N N/A 30.12 1020 10 16 N/A
4:35 am 04:35 Clear 70 21 68 20 94 94 SSW 3 6 30.12 1020 10 16 N/A
4:55 am 04:55 Partly Cloudy 68 20 68 20 100 100 S 5 7 30.15 1021 10 16 N/A
5:15 am 05:15 Partly Cloudy 68 20 68 20 100 100 N N/A 30.15 1021 10 16 N/A
5:35 am 05:35 Clear 68 20 68 20 100 100 N N/A 30.15 1021 10 16 N/A
5:55 am 05:55 Sunny 68 20 68 20 100 100 N N/A 30.15 1021 10 16 N/A
6:15 am 06:15 Sunny 66 19 66 19 100 100 N N/A 30.15 1021 10 16 N/A
6:35 am 06:35 Sunny 68 20 68 20 100 100 N N/A 30.18 1022 10 16 N/A
6:55 am 06:55 Sunny 68 20 68 20 100 100 N N/A 30.18 1022 10 16 N/A
7:15 am 07:15 Sunny 70 21 70 21 100 100 N N/A 30.18 1022 10 16 N/A
7:35 am 07:35 Sunny 72 22 70 21 94 94 S 5 7 30.21 1023 10 16 N/A
7:55 am 07:55 Sunny 72 22 70 21 94 94 S 3 6 30.21 1023 10 16 N/A
8:15 am 08:15 Sunny 72 22 70 21 94 94 SSW 3 6 30.21 1023 10 16 N/A
8:35 am 08:35 Sunny 73 23 70 21 89 89 S 3 6 30.21 1023 10 16 N/A
8:55 am 08:55 Sunny 75 24 70 21 83 83 SSW 5 7 30.21 1023 10 16 N/A
9:15 am 09:15 Sunny 77 25 70 21 79 79 SSW 6 9 30.21 1023 10 16 N/A
9:35 am 09:35 Sunny 77 25 70 21 79 79 SW 7 11 30.21 1023 10 16 N/A
9:55 am 09:55 Sunny 79 26 70 21 74 74 SE 3 6 30.21 1023 10 16 N/A
10:15 am 10:15 Sunny 81 27 70 21 70 70 N N/A 30.21 1023 10 16 N/A
10:35 am 10:35 Partly Cloudy 82 28 70 21 66 66 SSW 8 13 30.21 1023 10 16 N/A
10:55 am 10:55 Sunny 81 27 70 21 70 70 N N/A 30.21 1023 10 16 N/A
11:15 am 11:15 Partly Cloudy 82 28 70 21 66 66 SW 5 7 30.21 1023 10 16 N/A
11:35 am 11:35 Partly Cloudy 84 29 64 18 51 51 N 3 6 30.21 1023 10 16 N/A
11:55 am 11:55 Sunny 86 30 66 19 52 52 NNW 5 7 30.21 1023 10 16 N/A
12:15 pm 12:15 Sunny 86 30 66 19 52 52 W 8 13 30.21 1023 10 16 N/A
12:35 pm 12:35 Partly Cloudy 86 30 66 19 52 52 W 10 17 30.21 1023 10 16 N/A
12:55 pm 12:55 Sunny 86 30 64 18 49 49 NNW 3 6 30.21 1023 10 16 N/A
1:15 pm 13:15 Sunny 86 30 64 18 49 49 N 3 6 30.21 1023 10 16 N/A
1:35 pm 13:35 Partly Cloudy 88 31 64 18 46 46 WSW 7 11 30.21 1023 10 16 N/A
1:55 pm 13:55 Partly Cloudy 88 31 64 18 46 46 WSW 5 7 30.21 1023 10 16 N/A
2:15 pm 14:15 Partly Cloudy 88 31 64 18 46 46 W 8 13 30.21 1023 10 16 N/A
2:35 pm 14:35 Partly Cloudy 90 32 66 19 46 46 W 7 11 30.18 1022 10 16 N/A
2:55 pm 14:55 Partly Cloudy 88 31 64 18 46 46 WNW 13 20 30.18 1022 10 16 N/A
3:15 pm 15:15 Sunny 88 31 64 18 46 46 WNW 6 9 30.18 1022 10 16 N/A
3:35 pm 15:35 Mostly Cloudy 88 31 64 18 46 46 NW 7 11 30.18 1022 10 16 N/A
3:55 pm 15:55 Mostly Cloudy 88 31 66 19 49 49 NNW 9 15 30.18 1022 10 16 N/A
4:15 pm 16:15 Partly Cloudy 88 31 66 19 49 49 NW 8 13 30.18 1022 10 16 N/A
4:35 pm 16:35 Sunny 88 31 66 19 49 49 NNW 7 11 30.18 1022 10 16 N/A
4:55 pm 16:55 Sunny 86 30 64 18 49 49 N N/A 30.18 1022 10 16 N/A
5:15 pm 17:15 Sunny 86 30 66 19 52 52 NNW 6 9 30.18 1022 10 16 N/A
5:35 pm 17:35 Sunny 88 31 68 20 52 52 W 5 7 30.15 1021 10 16 N/A
5:55 pm 17:55 Partly Cloudy 86 30 66 19 52 52 N N/A 30.15 1021 10 16 N/A
6:15 pm 18:15 Partly Cloudy 84 29 68 20 58 58 NW 3 6 30.15 1021 10 16 N/A
6:35 pm 18:35 Mostly Cloudy 84 29 68 20 58 58 N N/A 30.15 1021 10 16 N/A
6:55 pm 18:55 Cloudy 82 28 70 21 66 66 W 5 7 30.18 1022 10 16 N/A
7:15 pm 19:15 Cloudy 81 27 70 21 70 70 W 3 6 30.18 1022 10 16 N/A
7:35 pm 19:35 Partly Cloudy 81 27 70 21 70 70 SSW 13 20 30.18 1022 10 16 N/A
7:55 pm 19:55 Sunny 81 27 70 21 70 70 SW 5 7 30.18 1022 10 16 N/A
8:15 pm 20:15 Sunny 79 26 70 21 74 74 WSW 6 9 30.18 1022 10 16 N/A
8:35 pm 20:35 Clear 79 26 70 21 74 74 SW 10 17 30.18 1022 10 16 N/A
8:55 pm 20:55 Clear 77 25 68 20 74 74 WSW 3 6 30.21 1023 10 16 N/A
9:15 pm 21:15 Clear 77 25 68 20 74 74 WSW 3 6 30.21 1023 10 16 N/A
9:35 pm 21:35 Partly Cloudy 77 25 68 20 74 74 NW 3 6 30.21 1023 10 16 N/A
9:55 pm 21:55 Partly Cloudy 73 23 70 21 89 89 NW 6 9 30.21 1023 10 16 N/A
10:15 pm 22:15 Clear 73 23 70 21 89 89 NNW 5 7 30.21 1023 10 16 N/A
10:35 pm 22:35 Partly Cloudy 73 23 68 20 83 83 WNW 8 13 30.21 1023 10 16 N/A
10:55 pm 22:55 Partly Cloudy 73 23 68 20 83 83 WNW 10 17 30.21 1023 10 16 N/A
11:15 pm 23:15 Mostly Cloudy 72 22 68 20 88 88 WNW 10 17 30.21 1023 10 16 N/A
11:35 pm 23:35 Partly Cloudy 72 22 68 20 88 88 N N/A 30.21 1023 10 16 N/A
11:55 pm 23:55 Clear 73 23 68 20 83 83 N N/A 30.24 1024 10 16 N/A

Powered by AerisWeather